Weather History for Sturgeon Bay, WI

Change the Weather History Date:

Wednesday, February 27, 2013

  Actual Average Record
Temperature  
Mean Temperature 30 °F -  
Max Temperature 32 °F 34 °F 47 °F (1929)
Min Temperature 28 °F 18 °F -12 °F (1934)
Degree Days  
Heating Degree Days 35    
Moisture  
Dew Point 27 °F    
Average Humidity 89    
Maximum Humidity 100    
Minimum Humidity 80    
Precipitation  
Precipitation 0.00 in - - ()
Sea Level Pressure  
Sea Level Pressure 29.70 in    
Wind  
Wind Speed 17 mph (NNE)    
Max Wind Speed 22 mph    
Max Gust Speed 31 mph    
Visibility 3 miles    
Events      
Averages and records for this station are not official NWS values.
T = Trace of Precipitation, MM = Missing Value Source: NWS Daily Summary

Daily Weather History Graph

Daily Weather History Graph

Search for Another Location

Airport:

Trip Planner

Search our weather history database for the weather conditions in past years. The results will help you decide how hot, cold, wet, or windy it might be!

Date:

Astronomy

Feb. 27, 2013 Rise Set
Actual Time 6:30 AM CST 5:34 PM CST
Civil Twilight 6:00 AM CST 6:04 PM CST
Nautical Twilight 5:27 AM CST 6:38 PM CST
Astronomical Twilight 4:53 AM CST 7:12 PM CST
Moon 8:04 PM CST 6:58 AM CST
Length of Visible Light 12h 03m
Length of Day
11h 04m
Waning Gibbous, 96% of the Moon is Illuminated
Feb 27
Waning Gibbous
Mar 4
Last Quarter
Mar 11
New
Mar 19
First Quarter
Mar 27
Full

Hourly Weather History & Observations

Time (CST) Temp. Windchill Dew Point Humidity Pressure Visibility Wind Dir Wind Speed Gust Speed Precip Events Conditions
12:15 AM 30.2 °F 18.9 °F 24.8 °F 80% 29.72 in 10.0 mi NNE 16.1 mph 23.0 mph N/A   Overcast
12:35 AM 30.2 °F 18.1 °F 24.8 °F 80% 29.71 in 10.0 mi NNE 18.4 mph 24.2 mph N/A   Overcast
12:55 AM 30.2 °F 18.1 °F 24.8 °F 80% 29.71 in 10.0 mi NNE 18.4 mph 27.6 mph N/A   Overcast
1:15 AM 30.2 °F 18.9 °F 24.8 °F 80% 29.71 in 2.5 mi NNE 16.1 mph 21.9 mph N/A   Overcast
1:35 AM 28.4 °F 17.5 °F 26.6 °F 93% 29.70 in 1.8 mi NNE 13.8 mph 26.5 mph N/A   Overcast
1:55 AM 28.4 °F 16.6 °F 26.6 °F 93% 29.70 in 1.2 mi NNE 16.1 mph 21.9 mph N/A   Overcast
2:15 AM 28.4 °F 16.6 °F 26.6 °F 93% 29.69 in 1.2 mi NNE 16.1 mph 20.7 mph N/A   Overcast
2:35 AM 28.4 °F 17.5 °F 26.6 °F 93% 29.68 in 1.5 mi North 13.8 mph - N/A   Overcast
2:55 AM 28.4 °F 16.6 °F 24.8 °F 86% 29.68 in 1.5 mi North 16.1 mph 20.7 mph N/A   Overcast
3:15 AM 28.4 °F 16.6 °F 24.8 °F 86% 29.67 in 1.5 mi NNE 16.1 mph - N/A   Overcast
3:35 AM 28.4 °F 16.2 °F 24.8 °F 86% 29.67 in 1.2 mi NNE 17.3 mph - N/A   Overcast
3:55 AM 28.4 °F 16.2 °F 24.8 °F 86% 29.68 in 1.2 mi NNE 17.3 mph - N/A   Overcast
4:15 AM 28.4 °F 16.6 °F 24.8 °F 86% 29.68 in 1.5 mi NNE 16.1 mph 23.0 mph N/A   Overcast
4:35 AM 28.4 °F 16.6 °F 26.6 °F 93% 29.68 in 1.2 mi NNE 16.1 mph - N/A   Overcast
4:55 AM 28.4 °F 17.5 °F 26.6 °F 93% 29.67 in 1.2 mi NNE 13.8 mph 21.9 mph N/A   Overcast
5:15 AM 28.4 °F 15.8 °F 24.8 °F 86% 29.67 in 1.5 mi North 18.4 mph 23.0 mph N/A   Overcast
5:35 AM 28.4 °F 17.0 °F 24.8 °F 86% 29.67 in 1.5 mi NNE 15.0 mph 23.0 mph N/A   Overcast
5:55 AM 28.4 °F 16.6 °F 24.8 °F 86% 29.67 in 2.0 mi NNE 16.1 mph 23.0 mph N/A   Overcast
6:15 AM 28.4 °F 17.5 °F 26.6 °F 93% 29.67 in 1.8 mi NNE 13.8 mph - N/A   Overcast
6:35 AM 28.4 °F 15.8 °F 26.6 °F 93% 29.67 in 1.2 mi NNE 18.4 mph 24.2 mph N/A   Overcast
6:55 AM 28.4 °F 16.6 °F 26.6 °F 93% 29.67 in 1.0 mi NNE 16.1 mph 23.0 mph N/A   Overcast
7:15 AM 28.4 °F 15.4 °F 26.6 °F 93% 29.67 in 1.5 mi North 19.6 mph 23.0 mph N/A   Overcast
7:35 AM 28.4 °F 17.0 °F 26.6 °F 93% 29.67 in 2.0 mi NNE 15.0 mph 23.0 mph N/A   Overcast
7:55 AM 28.4 °F 17.0 °F 26.6 °F 93% 29.68 in 2.5 mi NNE 15.0 mph 26.5 mph N/A   Overcast
8:15 AM 30.2 °F 18.1 °F 26.6 °F 86% 29.67 in 3.0 mi NNE 18.4 mph 25.3 mph N/A   Overcast
8:35 AM 30.2 °F 18.5 °F 26.6 °F 86% 29.67 in 2.5 mi NNE 17.3 mph - N/A   Overcast
9:15 AM 30.2 °F 17.8 °F 26.6 °F 86% 29.67 in 2.5 mi NNE 19.6 mph 26.5 mph N/A   Overcast
9:35 AM 30.2 °F 18.9 °F 26.6 °F 86% 29.67 in 2.0 mi NNE 16.1 mph 24.2 mph N/A   Overcast
9:55 AM 30.2 °F 18.5 °F 26.6 °F 86% 29.67 in 1.8 mi NNE 17.3 mph 21.9 mph N/A   Overcast
10:15 AM 30.2 °F 19.3 °F 28.4 °F 93% 29.67 in 1.2 mi NNE 15.0 mph 21.9 mph N/A   Overcast
10:35 AM 30.2 °F 18.9 °F 28.4 °F 93% 29.67 in 1.0 mi NNE 16.1 mph 21.9 mph N/A   Overcast
10:55 AM 30.2 °F 18.5 °F 28.4 °F 93% 29.67 in 1.5 mi NNE 17.3 mph 24.2 mph N/A   Overcast
11:15 AM 30.2 °F 18.9 °F 28.4 °F 93% 29.68 in 1.5 mi NNE 16.1 mph 21.9 mph N/A   Overcast
11:35 AM 32.0 °F 21.2 °F 28.4 °F 87% 29.68 in 1.5 mi NE 16.1 mph 21.9 mph N/A   Overcast
11:55 AM 32.0 °F 21.2 °F 28.4 °F 87% 29.67 in 3.0 mi NNE 16.1 mph 19.6 mph N/A   Overcast
12:15 PM 32.0 °F 21.6 °F 28.4 °F 87% 29.68 in 8.0 mi NNE 15.0 mph 20.7 mph N/A   Overcast
12:35 PM 32.0 °F 21.6 °F 26.6 °F 80% 29.67 in 8.0 mi NNE 15.0 mph 21.9 mph N/A   Overcast
12:55 PM 32.0 °F 20.8 °F 26.6 °F 80% 29.67 in 5.0 mi NNE 17.3 mph 27.6 mph N/A   Overcast
1:15 PM 32.0 °F 22.5 °F 26.6 °F 80% 29.67 in 4.0 mi NNE 12.7 mph 18.4 mph N/A   Overcast
1:35 PM 30.2 °F 20.2 °F 28.4 °F 93% 29.67 in 2.0 mi NNE 12.7 mph 18.4 mph N/A   Overcast
1:55 PM 30.2 °F 19.8 °F 28.4 °F 93% 29.67 in 2.0 mi North 13.8 mph 18.4 mph N/A   Overcast
2:15 PM 30.2 °F 19.3 °F 28.4 °F 93% 29.68 in 2.5 mi North 15.0 mph - N/A   Overcast
2:35 PM 30.2 °F 18.1 °F 28.4 °F 93% 29.68 in 1.5 mi North 18.4 mph - N/A   Overcast
2:55 PM 30.2 °F 18.5 °F 28.4 °F 93% 29.68 in 2.0 mi North 17.3 mph 24.2 mph N/A   Overcast
3:15 PM 30.2 °F 18.1 °F 28.4 °F 93% 29.69 in 2.5 mi North 18.4 mph 23.0 mph N/A   Overcast
3:35 PM 30.2 °F 18.5 °F 28.4 °F 93% 29.69 in 3.0 mi North 17.3 mph - N/A   Overcast
3:55 PM 30.2 °F 18.1 °F 28.4 °F 93% 29.69 in 2.5 mi North 18.4 mph - N/A   Overcast
4:15 PM 30.2 °F 18.1 °F 28.4 °F 93% 29.69 in 2.5 mi North 18.4 mph 26.5 mph N/A   Overcast
4:35 PM 30.2 °F 17.4 °F 28.4 °F 93% 29.70 in 1.8 mi North 20.7 mph 25.3 mph N/A   Overcast
4:55 PM 30.2 °F 17.8 °F 28.4 °F 93% 29.70 in 1.5 mi North 19.6 mph 26.5 mph N/A   Overcast
5:15 PM 30.2 °F 17.1 °F 28.4 °F 93% 29.71 in 1.8 mi North 21.9 mph 27.6 mph N/A   Overcast
5:35 PM 30.2 °F 17.8 °F 28.4 °F 93% 29.72 in 2.0 mi North 19.6 mph - N/A   Overcast
5:55 PM 30.2 °F 17.8 °F 28.4 °F 93% 29.72 in 2.0 mi North 19.6 mph 23.0 mph N/A   Overcast
6:15 PM 30.2 °F 18.1 °F 28.4 °F 93% 29.73 in 3.0 mi North 18.4 mph - N/A   Overcast
6:35 PM 30.2 °F 19.3 °F 28.4 °F 93% 29.74 in 3.0 mi NNE 15.0 mph - N/A   Overcast
6:55 PM 30.2 °F 18.5 °F 28.4 °F 93% 29.74 in 3.0 mi North 17.3 mph 21.9 mph N/A   Overcast
7:15 PM 30.2 °F 18.9 °F 28.4 °F 93% 29.74 in 5.0 mi North 16.1 mph - N/A   Overcast
7:35 PM 30.2 °F 18.5 °F 30.2 °F 100% 29.74 in 6.0 mi North 17.3 mph - N/A   Overcast
8:15 PM 32.0 °F 20.5 °F 28.4 °F 87% 29.75 in 10.0 mi North 18.4 mph - N/A   Overcast
8:35 PM 32.0 °F 20.8 °F 28.4 °F 87% 29.75 in 10.0 mi North 17.3 mph 24.2 mph N/A   Overcast
8:55 PM 32.0 °F 20.8 °F 28.4 °F 87% 29.75 in 7.0 mi North 17.3 mph 21.9 mph N/A   Overcast
9:15 PM 32.0 °F 20.8 °F 28.4 °F 87% 29.76 in 2.5 mi North 17.3 mph - N/A   Overcast
9:35 PM 32.0 °F 21.2 °F 28.4 °F 87% 29.76 in 3.0 mi North 16.1 mph 21.9 mph N/A   Overcast
9:55 PM 32.0 °F 20.8 °F 30.2 °F 93% 29.76 in 3.0 mi North 17.3 mph 23.0 mph N/A   Overcast
10:15 PM 32.0 °F 20.8 °F 30.2 °F 93% 29.76 in 3.0 mi North 17.3 mph 25.3 mph N/A   Overcast
10:35 PM 32.0 °F 19.8 °F 28.4 °F 87% 29.76 in 3.0 mi North 20.7 mph 25.3 mph N/A   Overcast
10:55 PM 32.0 °F 20.5 °F 28.4 °F 87% 29.76 in 8.0 mi NNE 18.4 mph 29.9 mph N/A   Overcast
11:15 PM 32.0 °F 19.5 °F 28.4 °F 87% 29.76 in 10.0 mi North 21.9 mph 26.5 mph N/A   Overcast
11:35 PM 32.0 °F 20.1 °F 28.4 °F 87% 29.76 in 9.0 mi North 19.6 mph 26.5 mph N/A   Overcast
11:55 PM 32.0 °F 19.5 °F 28.4 °F 87% 29.76 in 7.0 mi North 21.9 mph 31.1 mph N/A   Overcast